Timeline UpdatesTrip UpdatesNews PostsPvt PostsTravel TipsAdmin PostsConv PostsFollowed PostsChat RequestsBlog PostsPNR Posts

Disclaimer
Search
 
 
Sun Sep 21, 2014 07:34:23 ISTHomeTrainsΣChainsAtlasPNRForumGalleryNewsFAQTripsMembersLoginFeedback
No Recent News for this Train
Other Trains in the News **new
Latest...
.
Fri Sep 05, 2014 (07:43AM)
⇐ Return Journey: Train# 75719

75402⇒75720/Dinhata - Malda Town Passenger

Time-Table HAS CHANGED.
Sep 05 (7:43AM)
Change Departure Station:
Change Arrival Station:
Post a Train Travel TipPost a Train Travel Tip **new
Post a Comment/Question/Picture/VideoPost a Comment/Question/Picture/Video
Pantry/Catering
✕ NO Pantry Car
✕ NO Catering
RSA - Rake Sharing
Rake/Coach Composition
Loco
News    PNR    Forum    Time-Table    Availability    Fare Chart    Map    Arr/Dep History    Trips    Gallery    ΣChains    X/O    Timeline    
Travel Time: 7h 21m    41 halts    Distance: 261 km    Avg Speed: 35 km/hr
Type: DEMU
Zone: NFR/Northeast Frontier
Departs @ 10:04
Platform# ???
SMTWTFS
Raninagar Jalpaiguri Junction/RQJ 
Arrives @ 17:25
Platform# ???
SMTWTFS
Malda Town/MLDT 

41 halts. 43 intermediate Stations between Raninagar Jalpaiguri Junction and Malda Town

Show ALL intermediate Stations  Show Old Time-Table

#CodeStation NameX/OArrivesAvgDepartsAvgHaltPFDay#KmSpeedElevZoneAddress
1DHHDinhata (2)  -06:26 06:30-11-126.64839mNFRDist - Coochbehar, West Bengal
2DCHDinhatta College Halt (1)  06:30 06:33-06:31 06:34-1m11-124.24038mNFRDinhata, West Bengal
3VTGBhetaguri (1)  06:42 06:44-06:43 06:45-1m11-117.54443mNFRDist : Cooch Behar, West Bengal
4DWTDewan Hat (1)  06:48 06:50-06:49 06:51-1m11-113.95141mNFRdist - Coachbehar, West Bengal
5COBCooch Behar (1)  07:01 07:03-07:05 07:04-4 1m11-103.74646mNFRDist : Cooch Behar, West Bengal
6NCBNew Cooch Behar Junction (5)  07:10-07:15-5m--1-99.16847mNFRDist : Cooch Behar-736101, West Bengal
7PQZPundibari (1)  07:25 07:24-07:26 07:25-1m11-89.02453mNFRDist - Coochbehar, West Bengal
8SJRRSajherpar (2)X  07:36-07:37-1m--1-84.54554mNFRDist : Cooch Behar, West Bengal
9GDXGhoksadanga (2)  07:44 07:47-07:46 07:48-2 1m--1-77.04558mNFRDist : Cooch Behar, West Bengal
10GUZGumanihat (2)  07:52 07:55-07:53 07:56-1m11-71.88960mNFRDist : Cooch Behar, West Bengal
11FLKFalakata (3)X  08:01 08:03-08:02 08:04-1m--1-61.33667mNFRDist - Alipurduar, West Bengal
12SXXSalbari (2)  08:20 08:19-08:21 08:20-1m--1-52.46669mNFRDist - jalpaiguri, West Bengal
13KLGRKolai Gram (2)X  08:35 08:26-08:36 08:27-1m--1-45.74575mNFRDist : Jalpaiguri, West Bengal
14DQGDhupguri (2)  08:42 08:36-08:43 08:37-1m--1-39.05875mNFRDist - Jalpaiguri, West Bengal
15ATMAltagram (2)X  08:50 08:44-08:51 08:45-1m--1-32.23185mNFRDist - Jalpaiguri, West Bengal
16BYXABetgara (2)X  09:03 09:02-09:04 09:03-1m11-23.53689mNFRDIST - Jalpaiguri, West Bengal
17NMXNew Maynaguri (2)  09:11-09:12-1m--1-18.73886mNFRDist - Jalpaiguri, West Bengal
18NQHNew Domohani (2)X  09:16 09:18-09:17 09:19-1m11-14.83384mNFRDist - Jalpaiguri, West Bengal
19JPEJalpaiguri Road (2)X  09:34 09:33-09:35 09:34-1m11-7.21589mNFRdist - Jalpaiguri 735102, West Bengal
20RQJRaninagar Jalpaiguri Junction (3)»X  10:03-10:04-1m--10.05291mNFRDIST - Jalpaiguri, West Bengal
21BLKBelakoba (2)  10:12 10:13-10:13 10:14-1m117.74399mNFRDist - jalpaiguri, West Bengal
22ABFCAmbari Falakata (2)X  10:22 10:27-10:23 10:28-1m--117.143105mNFRdist - jalpaiguri 735201, West Bengal
23NJPNew Jalpaiguri Junction (8)X  10:40-10:50-10m--125.841114mNFRCity-Siliguri . Dist-Jalpaiguri, West Bengal
24RNIRangapani (2)  11:01-11:02-1m--133.259114mNFRSILIGURI Dist - Darjeeling, West Bengal
25NJBNijbari  11:09-11:10-1m--140.161104mNFRFulbari Ghoshpukur Bypass, West Bengal
26CATChattar Hat (2)X  11:17-11:18-1m--147.26891mNFRChattar, West Bengal
27DMZDumdangiX  11:28 11:26-11:29 11:27-1m--156.36786mNFRHaftia Rd, West Bengal
28TMHTin Mile HatX  11:53 11:35-11:54 11:36-1m--165.26174mNFRTin Mile, West Bengal
29MXJMangurjan  12:00 11:42-12:01 11:43-1m--171.35669mNFRMangurjan, West Bengal
30AUBAluabari Road (2)  12:13 11:55-12:15 11:57-2m--182.5680mNFRDist - uttar Dinajpur, West Bengal
31GEORGunjariaX  12:22 12:04-12:23 12:05-1m--190.55764mNFRNational Highway 31, West Bengal
32GILGaisal (3)X  12:29 12:11-12:30 12:12-1m--196.27562mNFRNational Highway 31, West Bengal
33PJPPanjipara (3)X  12:38 12:19-12:39 12:20-1m--1104.94955mNFRNational Highway 31, West Bengal
34KNEKishanGanj (3)  12:47 12:30-12:49 12:32-2m--1113.112652mNFRKishanganj, Bihar
35HWRHatwar (2)  13:00 12:36-13:01 12:37-1m--1121.62546mNFRNational Highway 31, West Bengal
36KKAKanki (3)  13:07 12:50-13:08 12:51-1m--1126.96547mNFRKanki, West Bengal
37SJKLSurja Kamal (2)X  13:15 12:58-13:16 12:59-1m--1134.66144mNFRNational Highway 31, West Bengal
38DLKDalkhola (3)  13:23 13:06-13:25 13:08-2m--1141.76144mNFRDalkola, West Bengal
39TETATelta (2)  13:33 13:16-13:34 13:17-1m--1149.83440mNFRRupauli, Bihar
40AHLAjharail  13:39 13:22-13:40 13:23-1m--1152.67537mNFRNational Highway 34, West Bengal
41SUDSudhani (2)  13:47 13:28-13:48 13:29-1m--1158.85138mNFRState Highway 65, Bihar
42SJGMSanjay Gram  14:11 13:33-14:12 13:34-1m--1162.24234mNFRSanjay Gram, West Bengal
43BOEBarsoi Junction (3)X  14:19 13:46-14:21 13:48-2m--1170.74337mNFRdist- katihar, Bihar
44MFAMukuria Junction (2)  14:26 13:54-14:27 13:55-1m--1175.04832mNFRMukuria, Bihar
45BWPBBhawanipur Bihar (2)  14:32 14:00-14:33 14:01-1m21179.05236mNFRBhawanipur, Bihar
46AZRAzamnagar Road (3)  14:38 14:06-14:39 14:07-1m--1183.47234mNFRAzamnagar, Bihar
47KMPHKamalpur Halt (2)  14:57 14:11-14:58 14:12-1m--1188.24332mNFRKamalpur, Bihar
48KWEKhurial (2)  15:01 14:16-15:02 14:17-1m--1191.07233mNFRKhurial, Bihar
49BAHNBabhabgaon Halt (2)  15:06 14:21-15:07 14:22-1m--1195.81631mNFRBabhabgaon, West Bengal
50KDPRKumedpur Junction (5)XO  15:20 14:32-15:22 14:34-2m--1198.5933mNFRDist. - Malda, West Bengal
51HCRHarischandrapur (2)  15:28 15:18-15:29 15:19-1m--1205.24231mNFRHarischandrapur, West Bengal
52MQGMilangarh (2)  15:35 15:26-15:36 15:27-1m--1210.14229mNFRMilangarh, West Bengal
53BKRDBhaluka Road F (2)X  15:42 15:32-15:43 15:33-1m--1213.67530mNFRBhaluka, West Bengal
54MFZMalahar (2)X  15:48 15:38-15:49 15:39-1m--1219.86031mNFRNational Highway 81, West Bengal
55SMSamsi (2)X  15:55 15:45-15:57 15:47-2m--1225.84932mNFRdist - Malda, West Bengal
56SRPUSripur Halt (2)  16:02 15:52-16:03 15:53-1m--1229.97227mNFRSripur, West Bengal
57KMRJKumarganj (2)  16:07 15:57-16:08 15:58-1m--1234.75728mNFRNational Highway 34, West Bengal
58MBCMahananda Bridge (2)X  16:12 16:02-16:13 16:03-1m--1238.52428mNFRMahananda, West Bengal
59EKIEklakhi Junction (4)  16:17 16:10-16:18 16:11-1m--1241.22833mNFRDistt. - Malda, West Bengal
60ADFAdina (2)  16:35 16:25-16:36 16:26-1m--1247.82533mNFRNational Highway 34, West Bengal
61OMLFOld Malda Junction (3)  16:53 16:43-16:54 16:44-1m--1254.9831mNFRDist - Malda, West Bengal
62MLDTMalda Town (5)•  17:25----1260.6-30mERDist - Malda, West Bengal
Scroll to Top
Scroll to Bottom